Leonardtown, MD

2:04 PM EDT on June 25, 2017 (GMT -0400)
Leonardtown

Weather History for K2W6 - April, 2014

Change the Weather History Date:

Thursday, April 10, 2014

  Actual Average (KNHK) Record (KNHK)
Temperature  
Mean Temperature 54 °F -  
Max Temperature 69 °F 57 °F 87 °F (2013)
Min Temperature 39 °F 40 °F 28 °F (2007)
Degree Days  
Heating Degree Days 11    
Growing Degree Days 4 (Base 50)    
Moisture  
Dew Point 31 °F    
Average Humidity 45    
Maximum Humidity 76    
Minimum Humidity 23    
Precipitation  
Precipitation 0.00 in - - ()
Sea Level Pressure  
Sea Level Pressure 30.15 in    
Wind  
Wind Speed 3 mph (South)    
Max Wind Speed 14 mph    
Max Gust Speed 20 mph    
Visibility 10 miles    
Events      
Averages and records for this station are not official NWS values.
T = Trace of Precipitation, MM = Missing Value Source: NWS Daily Summary

Daily Weather History Graph

Daily Weather History Graph

Search for Another Location

Airport or City:

Trip Planner

Search our weather history database for the weather conditions in past years. The results will help you decide how hot, cold, wet, or windy it might be!

Date:

Astronomy

Apr. 10, 2014 Rise Set
Actual Time 6:37 AM EDT 7:37 PM EDT
Civil Twilight 6:10 AM EDT 8:04 PM EDT
Nautical Twilight 5:38 AM EDT 8:37 PM EDT
Astronomical Twilight 5:05 AM EDT 9:10 PM EDT
Moon 3:23 PM EDT (4/10) 3:55 AM EDT (4/10)
Length of Visible Light 13h 54m
Length of Day
13h 00m
Waxing Gibbous, 79% of the Moon is Illuminated
Apr 10
Waxing Gibbous
Apr 15
Full
Apr 22
Last Quarter
Apr 29
New
May 6
First Quarter

Hourly Weather History & Observations

Time (EDT) Temp. Windchill Dew Point Humidity Pressure Visibility Wind Dir Wind Speed Gust Speed Precip Events Conditions
12:16 AM 46.4 °F - 30.2 °F 53% 30.08 in 10.0 mi Calm Calm - N/A   Clear
12:36 AM 44.6 °F - 32.0 °F 61% 30.08 in 10.0 mi Calm Calm - N/A   Clear
12:56 AM 46.4 °F - 30.2 °F 53% 30.09 in 10.0 mi Calm Calm - N/A   Clear
1:16 AM 44.6 °F - 32.0 °F 61% 30.10 in 10.0 mi Calm Calm - N/A   Clear
1:36 AM 44.6 °F - 32.0 °F 61% 30.10 in 10.0 mi Calm Calm - N/A   Clear
1:56 AM 44.6 °F - 30.2 °F 57% 30.11 in 10.0 mi Calm Calm - N/A   Clear
2:16 AM 42.8 °F - 32.0 °F 66% 30.11 in 10.0 mi Calm Calm - N/A   Clear
2:36 AM 42.8 °F - 33.8 °F 70% 30.11 in 10.0 mi Calm Calm - N/A   Clear
2:56 AM 41.0 °F - 33.8 °F 76% 30.11 in 10.0 mi Calm Calm - N/A   Clear
3:16 AM 41.0 °F - 32.0 °F 70% 30.12 in 10.0 mi Calm Calm - N/A   Clear
3:36 AM 41.0 °F - 30.2 °F 65% 30.12 in 10.0 mi Calm Calm - N/A   Clear
3:56 AM 42.8 °F - 30.2 °F 61% 30.13 in 10.0 mi Calm Calm - N/A   Clear
4:16 AM 42.8 °F - 30.2 °F 61% 30.13 in 10.0 mi Calm Calm - N/A   Clear
4:36 AM 42.8 °F - 32.0 °F 66% 30.13 in 10.0 mi Calm Calm - N/A   Clear
4:56 AM 41.0 °F - 32.0 °F 70% 30.14 in 10.0 mi Calm Calm - N/A   Clear
5:16 AM 41.0 °F - 32.0 °F 70% 30.14 in 10.0 mi Calm Calm - N/A   Clear
5:36 AM 41.0 °F - 32.0 °F 70% 30.15 in 10.0 mi Calm Calm - N/A   Clear
5:56 AM 41.0 °F - 32.0 °F 70% 30.16 in 10.0 mi Calm Calm - N/A   Clear
6:16 AM 39.2 °F 37.0 °F 32.0 °F 75% 30.17 in 10.0 mi ENE 3.5 mph - N/A   Clear
6:36 AM 41.0 °F 39.0 °F 30.2 °F 65% 30.18 in 10.0 mi NNE 3.5 mph - N/A   Clear
6:56 AM 39.2 °F - 32.0 °F 75% 30.20 in 10.0 mi Calm Calm - N/A   Clear
7:16 AM 39.2 °F - 32.0 °F 75% 30.21 in 10.0 mi Calm Calm - N/A   Clear
7:36 AM 44.6 °F - 32.0 °F 61% 30.22 in 10.0 mi Calm Calm - N/A   Clear
8:17 AM 50.0 °F - 32.0 °F 50% 30.23 in 10.0 mi Calm Calm - N/A   Clear
8:57 AM 53.6 °F - 32.0 °F 44% 30.24 in 10.0 mi SSW 3.5 mph - N/A   Clear
9:17 AM 55.4 °F - 32.0 °F 41% 30.24 in 10.0 mi SW 4.6 mph - N/A   Clear
9:37 AM 55.4 °F - 30.2 °F 38% 30.24 in 10.0 mi Calm Calm - N/A   Clear
9:57 AM 59.0 °F - 28.4 °F 31% 30.25 in 10.0 mi Calm Calm - N/A   Clear
10:17 AM 60.8 °F - 30.2 °F 31% 30.25 in 10.0 mi SSE 3.5 mph - N/A   Clear
10:37 AM 60.8 °F - 28.4 °F 29% 30.25 in 10.0 mi SW 6.9 mph - N/A   Clear
10:57 AM 60.8 °F - 28.4 °F 29% 30.25 in 10.0 mi SW 8.1 mph - N/A   Clear
11:17 AM 62.6 °F - 26.6 °F 26% 30.25 in 10.0 mi SSW 8.1 mph - N/A   Clear
11:37 AM 62.6 °F - 26.6 °F 26% 30.24 in 10.0 mi SSW 10.4 mph - N/A   Clear
11:57 AM 62.6 °F - 28.4 °F 27% 30.24 in 10.0 mi South 10.4 mph - N/A   Clear
12:17 PM 62.6 °F - 28.4 °F 27% 30.22 in 10.0 mi SSW 9.2 mph - N/A   Clear
12:37 PM 62.6 °F - 28.4 °F 27% 30.22 in 10.0 mi SSW 11.5 mph 16.1 mph N/A   Clear
12:57 PM 64.4 °F - 28.4 °F 26% 30.21 in 10.0 mi SW 13.8 mph 18.4 mph N/A   Clear
1:17 PM 64.4 °F - 28.4 °F 26% 30.20 in 10.0 mi SW 10.4 mph 19.6 mph N/A   Clear
1:37 PM 64.4 °F - 28.4 °F 26% 30.19 in 10.0 mi SW 10.4 mph 19.6 mph N/A   Clear
1:57 PM 66.2 °F - 28.4 °F 24% 30.18 in 10.0 mi SSW 9.2 mph 17.3 mph N/A   Clear
2:17 PM 66.2 °F - 30.2 °F 26% 30.17 in 10.0 mi SW 8.1 mph - N/A   Clear
2:37 PM 68.0 °F - 30.2 °F 24% 30.17 in 10.0 mi SSW 8.1 mph - N/A   Clear
2:57 PM 68.0 °F - 30.2 °F 24% 30.16 in 10.0 mi SSE 6.9 mph - N/A   Clear
3:17 PM 68.0 °F - 30.2 °F 24% 30.15 in 10.0 mi South 6.9 mph - N/A   Clear
3:37 PM 68.0 °F - 30.2 °F 24% 30.14 in 10.0 mi SSE 10.4 mph 17.3 mph N/A   Clear
3:57 PM 68.0 °F - 30.2 °F 24% 30.14 in 10.0 mi SE 8.1 mph - N/A   Clear
4:17 PM 68.0 °F - 30.2 °F 24% 30.13 in 10.0 mi SSE 9.2 mph - N/A   Clear
4:38 PM 69.8 °F - 30.2 °F 23% 30.12 in 10.0 mi SSW 9.2 mph 17.3 mph N/A   Clear
4:58 PM 69.8 °F - 30.2 °F 23% 30.11 in 10.0 mi SSW 8.1 mph - N/A   Clear
5:18 PM 69.8 °F - 30.2 °F 23% 30.10 in 10.0 mi South 9.2 mph 19.6 mph N/A   Clear
5:38 PM 69.8 °F - 30.2 °F 23% 30.10 in 10.0 mi SSW 8.1 mph - N/A   Clear
5:58 PM 69.8 °F - 30.2 °F 23% 30.10 in 10.0 mi SSW 8.1 mph 16.1 mph N/A   Clear
6:18 PM 68.0 °F - 32.0 °F 26% 30.11 in 10.0 mi SSE 5.8 mph - N/A   Clear
6:58 PM 62.6 °F - 32.0 °F 32% 30.12 in 10.0 mi SSE 8.1 mph - N/A   Clear
7:38 PM 59.0 °F - 32.0 °F 36% 30.11 in 10.0 mi SE 8.1 mph - N/A   Clear
8:18 PM 57.2 °F - 32.0 °F 38% - 10.0 mi SSE 6.9 mph - N/A   Clear
8:38 PM 57.2 °F - 33.8 °F 41% 30.11 in 10.0 mi SSE 6.9 mph - N/A   Clear
8:58 PM 55.4 °F - 33.8 °F 44% 30.12 in 10.0 mi SSE 5.8 mph - N/A   Clear
9:18 PM 55.4 °F - 33.8 °F 44% 30.12 in 10.0 mi SSE 5.8 mph - N/A   Clear
9:38 PM 55.4 °F - 35.6 °F 47% 30.12 in 10.0 mi SSE 8.1 mph - N/A   Clear
9:58 PM 55.4 °F - 35.6 °F 47% 30.11 in 10.0 mi SSE 5.8 mph - N/A   Clear
10:18 PM 55.4 °F - 37.4 °F 51% 30.11 in 10.0 mi SSE 5.8 mph - N/A   Clear
10:38 PM 55.4 °F - 37.4 °F 51% 30.11 in 10.0 mi South 4.6 mph - N/A   Clear
10:58 PM 55.4 °F - 37.4 °F 51% 30.10 in 10.0 mi South 5.8 mph - N/A   Clear
11:18 PM 55.4 °F - 37.4 °F 51% 30.10 in 10.0 mi South 5.8 mph - N/A   Clear
11:38 PM 55.4 °F - 37.4 °F 51% 30.10 in 10.0 mi South 4.6 mph - N/A   Clear
11:58 PM 57.2 °F - 37.4 °F 48% 30.09 in 10.0 mi SSW 6.9 mph - N/A   Clear